• In Czech Republic
  • List of Countries
  • For 7 days
  • Water Temperature
  • Satellite Maps
  • Weather Map
  • Weather Widgets
  • user-avatar
    Login

    Hourly Weather Winnipeg

    Today, 22 September, Saturday

    Time Temperature Precipitation Wind Pressure Humidity
    00:00 +7°C° 0 mm 4 mps 743 mmHg 74%
    01:00 +7°C° 0.1 mm 4 mps 743 mmHg 75%
    02:00 +7°C° 0.1 mm 4 mps 743 mmHg 75%
    03:00 +7°C° 0.1 mm 4 mps 742 mmHg 76%
    04:00 +6°C° 0.3 mm 4 mps 742 mmHg 79%
    05:00 +5°C° 0.3 mm 5 mps 743 mmHg 82%
    06:00 +3°C° 0.3 mm 5 mps 743 mmHg 85%
    07:00 +3°C° 0.1 mm 5 mps 744 mmHg 82%
    08:00 +3°C° 0.1 mm 6 mps 744 mmHg 80%
    09:00 +3°C° 0.1 mm 6 mps 745 mmHg 78%
    10:00 +4°C° 0 mm 6 mps 745 mmHg 72%
    11:00 +5°C° 0 mm 6 mps 746 mmHg 66%
    12:00 +5°C° 0 mm 6 mps 746 mmHg 60%
    13:00 +5°C° 0.1 mm 6 mps 746 mmHg 58%
    14:00 +6°C° 0.1 mm 5 mps 746 mmHg 55%
    15:00 +6°C° 0.1 mm 5 mps 746 mmHg 52%
    16:00 +6°C° 0 mm 5 mps 747 mmHg 52%
    17:00 +5°C° 0 mm 5 mps 747 mmHg 52%
    18:00 +5°C° 0 mm 5 mps 747 mmHg 52%
    19:00 +4°C° 0 mm 4 mps 747 mmHg 55%
    20:00 +4°C° 0 mm 4 mps 747 mmHg 57%
    21:00 +3°C° 0 mm 4 mps 748 mmHg 60%
    22:00 +3°C° 0 mm 4 mps 747 mmHg 60%
    23:00 +3°C° 0 mm 4 mps 747 mmHg 59%

    Tomorrow, 23 September, Sunday

    Time Temperature Precipitation Wind Pressure Humidity
    00:00 +1°C° 0 mm 4 mps 747 mmHg 59%
    01:00 +1°C° 0 mm 4 mps 747 mmHg 58%
    02:00 +1°C° 0 mm 5 mps 747 mmHg 57%
    03:00 +1°C° 0 mm 5 mps 747 mmHg 57%
    04:00 +1°C° 0 mm 5 mps 747 mmHg 57%
    05:00 +1°C° 0 mm 5 mps 747 mmHg 58%
    06:00 +1°C° 0 mm 5 mps 747 mmHg 59%
    07:00 +2°C° 0.1 mm 5 mps 747 mmHg 59%
    08:00 +2°C° 0.1 mm 5 mps 747 mmHg 60%
    09:00 +2°C° 0.1 mm 6 mps 746 mmHg 60%
    10:00 +2°C° 0.2 mm 6 mps 746 mmHg 64%
    11:00 +3°C° 0.2 mm 6 mps 746 mmHg 67%
    12:00 +3°C° 0.2 mm 6 mps 745 mmHg 70%
    13:00 +3°C° 0.4 mm 6 mps 745 mmHg 74%
    14:00 +3°C° 0.4 mm 6 mps 744 mmHg 78%
    15:00 +3°C° 0.4 mm 6 mps 743 mmHg 82%
    16:00 +3°C° 0.3 mm 6 mps 743 mmHg 84%
    17:00 +3°C° 0.3 mm 6 mps 742 mmHg 86%
    18:00 +3°C° 0.3 mm 6 mps 742 mmHg 87%
    19:00 +3°C° 0.2 mm 5 mps 741 mmHg 89%
    20:00 +5°C° 0.2 mm 5 mps 741 mmHg 90%
    21:00 +5°C° 0.2 mm 4 mps 740 mmHg 91%
    22:00 +5°C° 0.5 mm 5 mps 740 mmHg 91%
    23:00 +5°C° 0.5 mm 5 mps 739 mmHg 92%

    Day after tomorrow, 24 September, Monday

    Time Temperature Precipitation Wind Pressure Humidity
    00:00 +5°C° 0.5 mm 5 mps 738 mmHg 92%
    01:00 +5°C° 0.4 mm 4 mps 737 mmHg 93%
    02:00 +6°C° 0.4 mm 4 mps 737 mmHg 93%
    03:00 +7°C° 0.4 mm 3 mps 736 mmHg 93%
    04:00 +7°C° 0.3 mm 3 mps 735 mmHg 94%
    05:00 +7°C° 0.3 mm 3 mps 735 mmHg 95%
    06:00 +7°C° 0.3 mm 2 mps 734 mmHg 95%
    07:00 +7°C° 0.2 mm 3 mps 734 mmHg 93%
    08:00 +6°C° 0.2 mm 4 mps 734 mmHg 92%
    09:00 +6°C° 0.2 mm 4 mps 734 mmHg 90%
    10:00 +7°C° 0 mm 4 mps 735 mmHg 86%
    11:00 +8°C° 0 mm 5 mps 735 mmHg 82%
    12:00 +9°C° 0 mm 5 mps 735 mmHg 78%
    13:00 +9°C° 0 mm 5 mps 735 mmHg 78%
    14:00 +9°C° 0 mm 5 mps 735 mmHg 77%
    15:00 +8°C° 0 mm 5 mps 735 mmHg 76%
    16:00 +8°C° 0 mm 4 mps 736 mmHg 77%
    17:00 +8°C° 0 mm 4 mps 736 mmHg 79%
    18:00 +8°C° 0 mm 3 mps 737 mmHg 80%
    19:00 +8°C° 0 mm 3 mps 737 mmHg 81%
    20:00 +8°C° 0 mm 2 mps 737 mmHg 82%
    21:00 +8°C° 0 mm 2 mps 738 mmHg 83%
    22:00 +7°C° 0 mm 2 mps 738 mmHg 84%
    23:00 +7°C° 0 mm 2 mps 738 mmHg 85%

    25 September, Tuesday

    Time Temperature Precipitation Wind Pressure Humidity
    00:00 +7°C° 0 mm 2 mps 738 mmHg 86%
    01:00 +7°C° 0 mm 2 mps 738 mmHg 87%
    02:00 +7°C° 0 mm 2 mps 738 mmHg 88%
    03:00 +6°C° 0 mm 2 mps 738 mmHg 88%
    04:00 +6°C° 0 mm 2 mps 738 mmHg 90%
    05:00 +6°C° 0 mm 2 mps 738 mmHg 92%
    06:00 +5°C° 0 mm 2 mps 738 mmHg 93%
    07:00 +6°C° 0.1 mm 2 mps 738 mmHg 89%
    08:00 +7°C° 0.1 mm 2 mps 739 mmHg 84%
    09:00 +8°C° 0.1 mm 2 mps 739 mmHg 80%
    10:00 +8°C° 0.4 mm 2 mps 739 mmHg 79%
    11:00 +8°C° 0.4 mm 2 mps 738 mmHg 78%
    12:00 +8°C° 0.4 mm 2 mps 738 mmHg 77%
    13:00 +9°C° 0.2 mm 2 mps 738 mmHg 77%
    14:00 +9°C° 0.2 mm 2 mps 738 mmHg 76%
    15:00 +9°C° 0.2 mm 2 mps 738 mmHg 75%
    16:00 +9°C° 0.1 mm 2 mps 738 mmHg 78%
    17:00 +8°C° 0.1 mm 2 mps 739 mmHg 80%
    18:00 +8°C° 0.1 mm 3 mps 739 mmHg 82%
    19:00 +8°C° 0 mm 2 mps 739 mmHg 84%
    20:00 +7°C° 0 mm 2 mps 740 mmHg 85%
    21:00 +7°C° 0 mm 2 mps 740 mmHg 87%
    22:00 +7°C° 0 mm 2 mps 740 mmHg 88%
    23:00 +6°C° 0 mm 2 mps 740 mmHg 88%

    26 September, Wednesday

    Time Temperature Precipitation Wind Pressure Humidity
    00:00 +6°C° 0 mm 2 mps 740 mmHg 89%
    01:00 +6°C° 0 mm 2 mps 740 mmHg 89%
    02:00 +6°C° 0 mm 2 mps 740 mmHg 90%
    03:00 +5°C° 0 mm 2 mps 739 mmHg 90%
    04:00 +5°C° 0 mm 2 mps 739 mmHg 90%
    05:00 +5°C° 0 mm 2 mps 739 mmHg 91%
    06:00 +4°C° 0 mm 2 mps 739 mmHg 91%
    07:00 +5°C° 0 mm 2 mps 739 mmHg 84%
    08:00 +5°C° 0 mm 3 mps 738 mmHg 78%
    09:00 +7°C° 0 mm 3 mps 738 mmHg 71%
    10:00 +8°C° 0 mm 3 mps 738 mmHg 64%
    11:00 +10°C° 0 mm 4 mps 737 mmHg 57%
    12:00 +11°C° 0 mm 4 mps 737 mmHg 50%
    13:00 +12°C° 0 mm 4 mps 736 mmHg 47%
    14:00 +13°C° 0 mm 4 mps 735 mmHg 45%
    15:00 +14°C° 0 mm 5 mps 735 mmHg 42%
    16:00 +13°C° 0.1 mm 4 mps 734 mmHg 48%
    17:00 +12°C° 0.1 mm 3 mps 734 mmHg 54%
    18:00 +11°C° 0.1 mm 3 mps 734 mmHg 59%
    19:00 +10°C° 0.1 mm 2 mps 734 mmHg 66%
    20:00 +9°C° 0.1 mm 2 mps 733 mmHg 72%
    21:00 +9°C° 0.1 mm 2 mps 733 mmHg 78%
    22:00 +8°C° 0.1 mm 2 mps 733 mmHg 81%
    23:00 +8°C° 0.1 mm 2 mps 733 mmHg 85%

    27 September, Thursday

    Time Temperature Precipitation Wind Pressure Humidity
    00:00 +8°C° 0.1 mm 2 mps 732 mmHg 88%
    01:00 +8°C° 0.4 mm 3 mps 732 mmHg 89%
    02:00 +7°C° 0.4 mm 3 mps 732 mmHg 91%
    03:00 +7°C° 0.4 mm 3 mps 732 mmHg 93%
    04:00 +6°C° 0.5 mm 4 mps 732 mmHg 91%
    05:00 +6°C° 0.5 mm 4 mps 733 mmHg 90%
    06:00 +6°C° 0.5 mm 5 mps 733 mmHg 89%
    07:00 +6°C° 0.7 mm 5 mps 733 mmHg 86%
    08:00 +5°C° 0.7 mm 6 mps 733 mmHg 83%
    09:00 +5°C° 0.7 mm 6 mps 733 mmHg 80%
    10:00 +7°C° 0.3 mm 6 mps 733 mmHg 77%
    11:00 +8°C° 0.3 mm 6 mps 734 mmHg 73%
    12:00 +8°C° 0.3 mm 6 mps 734 mmHg 69%
    13:00 +9°C° 0 mm 6 mps 734 mmHg 68%
    14:00 +9°C° 0 mm 5 mps 735 mmHg 67%
    15:00 +9°C° 0 mm 5 mps 735 mmHg 65%
    16:00 +9°C° 0 mm 5 mps 735 mmHg 68%
    17:00 +8°C° 0 mm 4 mps 736 mmHg 70%
    18:00 +8°C° 0 mm 4 mps 736 mmHg 73%
    19:00 +7°C° 0 mm 4 mps 737 mmHg 77%
    20:00 +6°C° 0 mm 4 mps 737 mmHg 82%
    21:00 +5°C° 0 mm 3 mps 738 mmHg 86%
    22:00 +5°C° 0 mm 3 mps 738 mmHg 88%
    23:00 +4°C° 0 mm 3 mps 738 mmHg 90%
    Show more